Forside
METAR-TAF:

METAR-TAF

Lufthavne :

Ford Airport

Iron Mountain / Kingsford, Michigan, USA

Breddekreds: 45-48-51N, længdekreds: 088-06-32W, højde: 360 m

Aktuelle vejr

Denne rapport blev lavet for 30 minutter siden, kl. 06:54 UTC
Vind 5 kt fra vestnordvest
Temperatur 2°C
Fugtighed 69%
Tryk 1009 hPa
Sigt: 16.1 km
skyfri

METAR: KIMT 290654Z AUTO 29005KT 10SM CLR 02/M03 A2979 RMK AO2 SLP098 T00221033

Tid: 02:24 (07:24 UTC)


TAF: fraværende

Vejrobservationer og prognoser fra mere end 4000 lufthavne (METAR og TAF).

De gule og røde prikker repræsenterer de meteorologiske stationer.

Flyt musen over at se navnet på stationen.

Så klik over at se vejr observationer og prognoser.

At skifte det kort: Klik på de grønne knapper med et sort kors for at zoome ind; på den grønne knap med en bindestreg for at zoome ud; eller på de grønne pile for tilstødende kort.


METAR-TAF: